Punta Gorda, FL

4:11 PM EDT on May 24, 2017 (GMT -0400)
Charlotte County

Weather History for KPGD - January, 2014

Change the Weather History Date:

Friday, January 3, 2014

  Actual Average Record
Temperature  
Mean Temperature 56 °F -  
Max Temperature 66 °F 71 °F 84 °F (2007)
Min Temperature 46 °F 48 °F 30 °F (2008)
Degree Days  
Heating Degree Days 9    
Growing Degree Days 6 (Base 50)    
Moisture  
Dew Point 41 °F    
Average Humidity 63    
Maximum Humidity 90    
Minimum Humidity 37    
Precipitation  
Precipitation 0.01 in - - ()
Sea Level Pressure  
Sea Level Pressure 30.14 in    
Wind  
Wind Speed 16 mph (NNE)    
Max Wind Speed 22 mph    
Max Gust Speed 29 mph    
Visibility 10 miles    
Events Rain    
Averages and records for this station are not official NWS values.
T = Trace of Precipitation, MM = Missing Value Source: NWS Daily Summary

Daily Weather History Graph

Daily Weather History Graph

Search for Another Location

Airport or City:

Trip Planner

Search our weather history database for the weather conditions in past years. The results will help you decide how hot, cold, wet, or windy it might be!

Date:

Astronomy

Jan. 03, 2014 Rise Set
Actual Time 7:17 AM EST 5:47 PM EST
Civil Twilight 6:52 AM EST 6:12 PM EST
Nautical Twilight 6:23 AM EST 6:41 PM EST
Astronomical Twilight 5:55 AM EST 7:10 PM EST
Moon 8:58 AM EST (1/3) 8:37 PM EST (1/3)
Length of Visible Light 11h 20m
Length of Day
10h 30m
Waxing Crescent, 8% of the Moon is Illuminated
Jan 3
Waxing Crescent
Jan 7
First Quarter
Jan 15
Full
Jan 24
Last Quarter
Jan 30
New

Hourly Weather History & Observations

Time (EST) Temp. Windchill Dew Point Humidity Pressure Visibility Wind Dir Wind Speed Gust Speed Precip Events Conditions
12:17 AM 66.0 °F - 63.0 °F 90% 29.98 in 10.0 mi NNW 19.6 mph 27.6 mph 0.01 in Rain Light Rain
12:31 AM 64.9 °F - 62.1 °F 90% 29.98 in 10.0 mi NNW 13.8 mph 26.5 mph 0.01 in   Overcast
12:53 AM 64.0 °F - 60.1 °F 87% 29.99 in 10.0 mi NNW 21.9 mph 28.8 mph 0.01 in   Overcast
1:15 AM 63.0 °F - 55.9 °F 78% 30.00 in 10.0 mi North 20.7 mph 26.5 mph N/A   Overcast
1:53 AM 62.1 °F - 55.0 °F 78% 30.01 in 10.0 mi NNW 17.3 mph 24.2 mph N/A   Overcast
2:53 AM 61.0 °F - 54.0 °F 78% 30.02 in 10.0 mi North 15.0 mph - N/A   Mostly Cloudy
3:53 AM 59.0 °F - 51.1 °F 75% 30.04 in 10.0 mi NNW 19.6 mph 25.3 mph N/A   Overcast
4:53 AM 55.0 °F - 44.1 °F 67% 30.07 in 10.0 mi North 19.6 mph 24.2 mph N/A   Partly Cloudy
5:53 AM 52.0 °F - 37.9 °F 59% 30.09 in 10.0 mi North 15.0 mph 21.9 mph N/A   Clear
6:53 AM 51.1 °F - 35.1 °F 54% 30.12 in 10.0 mi North 16.1 mph - N/A   Clear
7:53 AM 50.0 °F - 35.1 °F 57% 30.15 in 10.0 mi NNE 12.7 mph - N/A   Clear
8:53 AM 51.1 °F - 30.0 °F 44% 30.18 in 10.0 mi North 13.8 mph - N/A   Clear
9:53 AM 54.0 °F - 33.1 °F 45% 30.19 in 10.0 mi North 12.7 mph - N/A   Clear
10:53 AM 55.0 °F - 32.0 °F 42% 30.19 in 10.0 mi NE 17.3 mph 23.0 mph N/A   Clear
11:53 AM 57.0 °F - 30.9 °F 37% 30.17 in 10.0 mi NE 16.1 mph - N/A   Clear
12:53 PM 55.9 °F - 30.0 °F 37% 30.17 in 10.0 mi NNE 17.3 mph - N/A   Clear
1:53 PM 55.9 °F - 30.0 °F 37% 30.16 in 10.0 mi ENE 15.0 mph 23.0 mph N/A   Clear
2:53 PM 59.0 °F - 33.1 °F 38% 30.17 in 10.0 mi NE 13.8 mph - N/A   Clear
3:53 PM 55.9 °F - 34.0 °F 44% 30.17 in 10.0 mi ENE 18.4 mph 25.3 mph N/A   Clear
4:53 PM 52.0 °F - 37.0 °F 57% 30.21 in 10.0 mi ENE 15.0 mph 25.3 mph N/A   Clear
5:53 PM 48.9 °F - 37.9 °F 66% 30.22 in 10.0 mi NE 15.0 mph - N/A   Clear
6:53 PM 46.9 °F - 37.9 °F 71% 30.23 in 10.0 mi NE 15.0 mph - N/A   Clear
7:53 PM 46.9 °F - 39.0 °F 74% 30.25 in 10.0 mi NNE 10.4 mph - N/A   Clear
8:53 PM 46.0 °F 41.4 °F 39.0 °F 76% 30.26 in 10.0 mi NNE 9.2 mph - N/A   Clear
9:53 PM 46.0 °F 41.0 °F 39.0 °F 76% 30.26 in 10.0 mi NNE 10.4 mph - N/A   Clear
10:53 PM 46.9 °F - 39.9 °F 77% 30.27 in 10.0 mi NNE 9.2 mph - N/A   Clear
11:53 PM 46.9 °F - 39.9 °F 77% 30.24 in 10.0 mi NNE 9.2 mph 19.6 mph N/A   Clear